CamptonHillsWeather.com

Find the Weather for any City, State  
or Zipcode, or Country:

Campton Hills, IL Weather
Local Radar

Local Radar

Graphs, Details
Graphs and Gauges
Detailed Weather
Detailed Reports
Ajax Version (old)
Central Kane Co Summary
Davis Current Weather Graphs
Davis 24 Hour Weather History

CW3778 Data

Weather Underground
Maps
Temperature
Heat Index
Windchill
Humidity
Radar
Dew Point
Wind
Visibility
Visible Satellite
Satellite
Fronts
Snow Depth
Jet Stream
Flight Rules
Forecast Maps
Temperature Forecast
Maximum Temperature Forecast
Minimum Temperature Forecast
Dewpoint Forecast
Prevalent Weather
12Hr Probability of Precip.
Sky Cover
Health Maps
UV Forecast
Air Quality
Peak Air Quality Index
Weather Station
Davis Instruments Vantage Pro
Current Conditions [Select Refresh to Update]

Updated: 8:35pm on 5/31/16

(location)
Currently:
64.0F

Clear
Overcast

High: 82.1 F< 
(11:50am
Low: 61.3 F 
(5:49am)
Wind: SE 0 mph
Calm
Gust: 0 mph
Today's High Wind: 12 mph (1:32pm)
Humidity: 96%
Pressure: 29.93 in  (Steady
Pressure Rate: -0.006 in/hr
Dew Point: 62.8F
Wind Chill: 64.0 F
Heat Index (feels like): 70.6 F
Comfort Level: Comfortable
Temperature Rate:  -0.33F/hr
 
5 Day Forecast
 
Mon Tue Wed Thu Fri
Clear Clear Clear Clear Clear
T-storms T-storms Chance T-storms Chance Rain Chance Rain
63 72 77 70 67
54 56 54 49 45

Records and Normals
 
Temperature Forecast Normal Record
High 63 69 86
(2004)
Low 54 45 35
(2010)
 
Links
 
 
Weather Advisories
Full Advisory Text...
Weather Map

Web Cam

Almanac
 
Sunrise:  
5:20am
Moonrise: 
2:33am

Moon Phase:
31%

Sunset: 
8:22pm
Moonset:  
3:08pm
 Star Chart...
Rainfall Totals
Hourly Rain 0.00 in
Daily Rain: 0.22 in
Monthly Rain: 5.95 in
Yearly Rain: 15.05 in
Normal Rain, month to date: 0.79 in
Normal Rain, year to date: 8.91 in
Link to Village of Campton Hills Map

Link to Counties of Illinois Map

Local Weather Exchange Network
Station ID City 
(Click for Map Location)
Neighborhood 
(Click for History)
Last Update (Date & Time) Temperature
 ()
Dew
Point ()
Humidity 
(%)
Wind 
(mph)
from the Wind Gust 
(mph) 
Pressure(in) Hourly
Rain(in)
KILSAINT20 Saint Charles Knoll Creek Drive 05/09 01:06:41 56.1 43.0 62 0 North 0 29.89 0.00
KILSAINT17 Saint Charles Glen Oak Lane 05/09 01:05:31 53.1 44.0 71 0 North 0 30.01 0.00
KILSAINT10 Saint Charles Saint Charles Burr Road 05/09 00:55:08 51.3 46.0 81 0 NE 0 29.68 0.00
KILGENEV5 Geneva meso_neigh4 05/09 01:07:46 53.9 46.0 74 0 NW 2 29.90 0.00
KILSTCHA10 St. Charles Hunt Club 05/09 01:07:58 51.3 30.0 43 0 SSE 0 29.49 0.00
KILWAYNE5 Wayne Persimmon Drive 05/09 01:06:30 55.8 46.0 70 0 North 0 30.04 0.00
KILSAINT8 Saint Charles St. Charles Near West Side 05/09 01:02:29 50.7 44.0 77 0 ESE 0 29.71 0.00
KILWAYNE4 Wayne Hampton Course 05/09 01:05:46 55.2 46.0 71 0 North 0 30.04 0.00
KILSAINT7 Saint Charles Silver Glen 05/09 01:07:38 52.7 45.0 74 0 SE 0 29.60 0.00
KILCAMPT3 Campton Hills Campton Hills 05/09 01:07:39 51.3 44.0 77 0 South 0 29.95 0.00
KILSAINT6 Saint Charles 3 Lakes 05/09 00:57:56 48.9 43.0 81 0 WSW 0 29.69 0.00
KILGENEV16 Geneva Fisher Farms 05/09 01:07:56 54.0 48.0 79 0 SW 0 29.12 0.00
KILSOUTH10 South Elgin East Thornwood Drive 05/09 00:11:13 56.7 40.0 53 0 North 0 28.97 0.00
KILSAINT9 Saint Charles Fox Chase 05/09 01:07:38 53.4 48.0 83 0 SW 0 29.95 0.00
KILGENEV6 Geneva Dover Ridge 05/09 01:07:55 54.7 47.0 75 0 South 0 29.93 0.00
MUR354 Geneva MesoWest 05/08 23:55:00 50.0 0.0 0 3 SSE 4 0.00 0.00
KILELBUR18 Elburn Elodie Drive 05/09 01:05:35 56.3 44.0 63 0 North 0 28.47 0.00
KILGENEV10 Geneva Southampton Drive 05/09 00:01:33 55.0 45.0 69 0 North 0 30.00 0.00
KILSTCHA8 St. Charles Ronzheimer Ave. & S. Tyler Rd. 05/09 01:07:51 54.6 46.0 73 1 SE 3 29.93 0.00
KILGENEV3 Geneva Mill Creek (Blackberry Way) 05/09 01:07:58 52.5 47.0 80 0 SSW 0 29.96 0.00
KILSTCHA1 St Charles CamptonHillsWeather.com Central Kane County 05/09 01:07:50 52.3 46.0 79 0 SE 0 29.96 0.00
KILGENEV7 Geneva Eldorado Drive 05/09 01:06:00 57.0 48.0 72 0 North 0 29.88 0.00
KILGENEV8 Geneva Alexander Drive 05/09 01:05:47 43.5 31.0 61 0 North 0 30.34 0.00
KILGENEV13 Geneva Alexander Drive 05/09 01:05:40 53.8 45.0 71 0 North 0 29.96 0.00
KILSOUTH5 South Elgin Concord Park 05/09 00:54:24 50.5 46.0 83 0 NNW 0 29.71 0.00
KILWAYNE7 Wayne Honey Hill 05/09 00:48:53 50.6 47.0 87 0 North 0 30.16 0.00
KILGENEV2 Geneva Mill Creek 05/09 01:03:31 55.0 46.0 73 1 East 2 29.90 0.00
KILBATAV13 Batavia Blackhawk Dr, Batavia 05/09 01:07:53 55.0 46.0 70 0 NE 0 29.97 0.00
KILELBUR11 Elburn Cheval de Selle 05/09 01:07:23 52.9 46.0 76 0 SSW 0 29.93 0.00
KILBATAV7 Batavia Charleston Street 05/09 01:06:08 54.1 46.0 73 0 North 0 30.02 0.00
KILBATAV16 Batavia Park Street 05/09 01:07:38 53.6 46.0 74 0 ESE 0 29.93 0.00
KILELBUR13 Elburn Hicks Drive 05/09 01:05:26 65.1 46.0 50 0 North 0 29.81 0.00
KILBATAV6 Batavia Tri Cities on the Fox River 2 05/09 01:00:21 54.6 43.0 64 0 SE 2 29.99 0.00
KILBATAV1 Batavia Tri-Cities on the Fox River 05/09 01:07:34 55.7 42.0 61 0 SE 0 29.95 0.00
KILELGIN16 Elgin Providence Subdivision 05/09 01:07:17 50.9 42.0 71 0 SW 0 29.69 0.00
KILELBUR10 Elburn Prairie Valley North 05/09 01:07:55 53.8 45.0 72 3 East 5 29.76 0.00
KILELGIN20 Elgin Williamsburg Drive 05/09 01:06:20 54.7 41.0 59 0 North 0 29.93 0.00
KILELBUR15 Elburn East North Street 05/09 01:06:32 58.8 43.0 55 0 North 0 29.77 0.00
KILBATAV10 Batavia Deerpath Road 05/09 01:05:59 55.2 46.0 72 0 North 0 29.96 0.00
KILELBUR9 Elburn Griffith Avenue 05/09 01:05:32 55.9 46.0 70 0 North 0 29.18 0.00
Full Advisory Text
No Warnings

Ambient Weather and Weather Underground
 Never base important decisions on this or any weather information obtained from the Internet
Updated Automatically by Ambient Weather's Virtual Weather Station  V13.01